Regional Weather Roundup
Issued by NWS

Home | Current Version | Previous Version | Text Only | Print | Product List | Glossary On
Versions: 1 2 3 4 5 6 7 8 9 10 11 12 13 14 15 16 17 18 19 20 21 22 23 24 25 26 27 28 29 30 31 32 33 34 35 36 37 38 39 40 41 42 43 44 45 46 47 48 49 50
552
ASUS43 KDMX 210401
RWRIA

WEATHER ROUNDUP FOR IOWA
NATIONAL WEATHER SERVICE DES MOINES IA
1100 PM CDT FRI OCT 20 2017

NOTE: "FAIR" INDICATES FEW OR NO CLOUDS BELOW 12,000 FEET WITH NO
SIGNIFICANT WEATHER AND/OR OBSTRUCTIONS TO VISIBILITY.

* - THESE STATIONS ARE NOT NWS STATIONS...THUS NOT UNDER NWS
QUALITY CONTROL.  THEY ALSO DO NOT REPORT WEATHER SUCH
AS PRECIPITATION OR FOG.

IAZ001>003-012>014-020>022-031>034-043>046-210500-
   NORTHWEST IOWA

CITY           SKY/WX    TMP DP  RH WIND       PRES   REMARKS
CHEROKEE *     CLOUDY    66  57  73 S24G32    29.69R
DENISON *      CLEAR     64  57  77 S24G35    29.73S
LE MARS *      CLOUDY    68  57  68 S22G31    29.64R
ORANGE CITY *  CLOUDY    68  61  77 S17G25    29.65R
SHELDON *      CLOUDY    66  57  72 S21G29    29.64S
SIOUX CITY     PTCLDY    68  58  70 S22G32    29.65R
SPENCER        CLOUDY    65  56  72 S25G32    29.69S
STORM LAKE *   CLOUDY    64  57  77 S26       29.71S
$$

IAZ055>058-069>071-079>083-090>094-210500-
   SOUTHWEST IOWA

CITY           SKY/WX    TMP DP  RH WIND       PRES   REMARKS
ATLANTIC *     CLOUDY    64  57  77 S20G25    29.77F
AUDUBON *      CLOUDY    64  57  77 S17G23    29.78S
CLARINDA *     CLEAR     64  57  77 S12G18    29.82S
COUNCIL BLFS * CLOUDY    66  59  77 S17G29    29.73S
CRESTON *      CLEAR     63  54  72 S15       29.85R
HARLAN  *      CLEAR     64  57  77 S20G29    29.77F
LAMONI         CLEAR     62  53  72 S12G22    29.86S
RED OAK *      CLOUDY    64  57  77 S10       29.78F
SHENANDOAH *   MOCLDY    68  57  68 S17G32    29.77F
$$

IAZ047>049-059>061-072>074-084-210500-
   CENTRAL IOWA

CITY           SKY/WX    TMP DP  RH WIND       PRES   REMARKS
AMES           CLEAR     61  53  75 S13       29.83R
ANKENY *       CLEAR     63  52  67 S14       29.84S
BOONE *        CLEAR     61  52  72 S13G18    29.81S
CHARITON *     CLEAR     63  52  67 S15G25    29.87R
DES MOINES     PTCLDY    63  52  67 S15       29.84S
GRINNELL*      CLEAR     61  49  65 S15       29.89S
KNOXVILLE *    CLEAR     64  50  59 S15G21    29.86R
MARSHALLTOWN   CLEAR     62  50  64 SE15      29.85S
NEWTON *       CLEAR     61  50  67 S16       29.87S
PELLA *        CLEAR     62  50  63 S10       29.89S
PERRY *          N/A     63  52  68 S12G17    29.81S
$$

IAZ004>006-015-016-023>025-035-036-210500-
   NORTH CENTRAL IOWA

CITY           SKY/WX    TMP DP  RH WIND       PRES   REMARKS
ALGONA *       CLOUDY    64  55  72 S23G33    29.75S
CLARION *      CLOUDY    63  54  72 S18G26    29.79S
ESTHERVILLE    CLOUDY    63  56  78 S23G33    29.71R
FORT DODGE *   CLOUDY    63  54  72 S12G23    29.78R
MASON CITY     CLOUDY    63  50  62 S17       29.82S
FOREST CITY *    N/A     63  52  67 S18G25    29.79S
WEBSTER CITY * PTCLDY    63  52  67 S13G21    29.79R
IOWA FALLS *     N/A     62  51  67 SE17      29.84S
$$

IAZ007>011-017>019-026>030-037>042-050>054-066-210500-
   NORTHEAST IOWA

CITY           SKY/WX    TMP DP  RH WIND       PRES   REMARKS
CEDAR RAPIDS   CLOUDY    64  49  57 S12       29.91S
CHARLES CITY * CLEAR     63  48  59 S14G20    29.85S
CLINTON *      MOCLDY    66  49  54 S15       29.98
DECORAH *      CLOUDY    64  46  52 S12G21    29.87R
DUBUQUE        MOCLDY    63  46  54 S14G22    29.95S
MONTICELLO *   PTCLDY    63  48  59 SE8       29.93S HAZE
OELWEIN *      CLOUDY    63  48  59 S14       29.90R
WATERLOO       CLOUDY    62  47  57 S16       29.86S
$$

IAZ064-065-067-068-078-210500-
   EAST CENTRAL IOWA

CITY           SKY/WX    TMP DP  RH WIND       PRES   REMARKS
DAVENPORT      CLOUDY    66  47  50 S14G28    29.98S
IOWA CITY      PTCLDY    66  50  56 S12       29.95S
MUSCATINE *    CLOUDY    66  48  52 S9        29.95S
QUAD CITIES    MOCLDY    67  48  50 S16G23    29.96R
$$

IAZ062-063-075>077-085>089-095>099-210500-
   SOUTHEAST IOWA

CITY           SKY/WX    TMP DP  RH WIND       PRES   REMARKS
BURLINGTON     PTCLDY    66  51  58 S12       29.97S
FAIRFIELD *    MOCLDY    66  48  52 S16       29.92S
FORT MADISON * CLOUDY    64  52  63 S9        29.97S
KEOKUK *       CLOUDY    66  50  55 S9        29.96S
OSKALOOSA *      N/A     63  50  61 S16       29.90S
OTTUMWA        PTCLDY    65  50  58 S17       29.90R
WASHINGTON *   CLOUDY    64  50  59 S13       29.95R
$$

ABBREVIATIONS USED IN REMARKS
   TC - TEMPERATURES IN CELSIUS
  WCI - WIND CHILL INDEX
   HX - HEAT INDEX
  VSB - VISIBILITY
$$





USA.gov is the U.S. government's official web portal to all federal, state and local government web resources and services.